星链-32575 (STARLINK-32575)

导读

STARLINK-325575是美国SpaceX星链计划中的卫星,于2024年11月30日发射。星链项目旨在构建全球卫星互联网星座,为全球偏远地区等提供高速互联网接入服务。该卫星延续星链标准设计,服务低轨宽带网络布局,进一步扩充了星链星座的规模,提升星座整体覆盖能力与服务稳定性。

Basic Information
目录编号:
62173
目录名称:
STARLINK-32575
国际标识:
2024-225L
轨道中心:
EARTH
卫星名称:
星链-32575
卫星全名:
星链-32575 (STARLINK-32575)
卫星状态:
在轨 (已飞行651 天)
发射日期:
2024-11-30 UTC
国别 :
美国 (US)
星等 :
--
This satellite is enrolled in the Space Conjunction Data Service (SCDS) and the current flight risk assessment level is: High Risk
Orbit Information
数据来源 国际轨道数据
星历时间: 2026-09-12T06:00:02+0800
6小时前
查看轨道信息
半长轴: 6855.197km
偏心率: 0.0003308
轨道倾角: 70.001°
近地点辐角 274.504°
升交点赤经 43.792°
平近点角 240.714°
近地点: 474.792km
远地点: 479.328km
周期: 94.143分钟
每日圈数: 15.295826
Detailed Information
固有亮度:
5
最大亮度:
2.5
卫星平台:
Starlink V1.0
覆盖范围:
全球
运营商:
太空探索技术公司
运营商所在国:
美国
制造商(研发单位):
太空探索技术公司
制造商所在国:
美国
使用方式:
暂无
Satellite Introduction
Starlink 计划是 SpaceX 推出的全球卫星互联网项目,通过发射低轨道卫星,为全球尤其是偏远地区提供高速、低延迟的互联网服务。自 2019 年起,Starlink 已部署数千颗卫星,旨在缩小全球数字鸿沟,推动互联网普及。该项目还为军事、航空等行业提供通信支持,带来广泛经济效益。
2D Orbit Map
3D Orbit Map
Orbit Altitude Analysis Chart
Orbit Inclination Analysis Chart
Orbit Comprehensive Analysis Chart
View Comprehensive Chart
Conjunction Data List
Event ID Objects TCA Miss Dist (km) Collision Risk Probability Collision Risk Index (CRI) Action
CDM_260913-230106-217306-435421
2026-09-13T
23:01:07+0000
0.241 km
中距离
6.227368E-4 高风险 0.91
CDM_260914-060406-217306-435421
2026-09-14T
06:04:50+0000
0.926 km
远距离
3.118005E-5 中风险 0.65
CDM_260914-003506-217306-435421
2026-09-14T
00:35:16+0000
2.024 km
极远距离
2.485455E-6 低风险 0.43
CDM_260914-073906-217306-435421
2026-09-14T
07:39:00+0000
2.148 km
极远距离
2.156022E-6 低风险 0.42
CDM_260913-212606-217306-435421
2026-09-13T
21:26:57+0000
2.347 km
极远距离
1.781784E-6 低风险 0.4
CDM_260912-140904-371106-217321
2026-09-12T
14:09:29+0000
2.822 km
极远距离
1.400431E-6 低风险 0.38
CDM_260913-080205-993906-217321
2026-09-13T
08:02:30+0000
2.299 km
极远距离
1.216653E-6 低风险 0.37
Miss Distance Evolution Trend with All Objects
Collision Probability Evolution Trend with All Objects